Tracking 22879 objects as of 21-Apr-2021
HD Live streaming from Space Station
objects crossing your sky now

DELTA 1 DEB

Track DELTA 1 DEB now!
10-day predictions


NORAD ID: 7013
Int'l Code: 1973-086D
Perigee: 1,409.8 km
Apogee: 1,519.9 km
Inclination: 101.9 °
Period: 115.1 minutes
Semi major axis: 7835 km
RCS: 0.9452 m2 (medium)
Launch date: November 6, 1973
Source: United States (US)
Launch site: AIR FORCE WESTERN TEST RANGE (AFWTR)

Note: This is SATELLITE DEBRIS
aabbcc
Your satellite tracking list
Your tracking list is empty




NASA's NSSDC Master Catalog

Two Line Element Set (TLE):
1 07013U 73086D   21111.59921280  .00000002  00000-0  29913-3 0  9996
2 07013 101.8760  87.9149 0070230  87.9639  27.4855 12.51627926166845
Source of the keplerian elements: AFSPC